sat.trackr.live / text

‹ back to catalog

AAC-HSI-SAT2

NORAD 56995 · 2023-084BX

PAYLOAD ACTIVE UNKNOWN

§ Identity

Operator
Country
UK
Launch date
2023-06-12
Launch site
AFWTR
Launch vehicle
Mass (kg)
RCS (m²)

External: N2YO · Heavens-Above · Gunter

§ Orbital elements

Epoch: 2026-09-21T22:31:18.333696Z

Period
94.68 min
Inclination
97.8381°
Eccentricity
0.0011390
Mean motion
15.20985007 rev/d
Perigee alt
495.0 km
Apogee alt
510.7 km
Semi-major
6,881.0 km
B*
1.0450e-4
RAAN
58.9377°
Arg perigee
204.4360°
Mean anomaly
155.6336°
Rev number
18,104

§ Raw data

AAC-HSI-SAT21 56995U 23084BX  26264.93840664  .00002243  00000+0  10450-3 0  99942 56995  97.8381  58.9377 0011390 204.4360 155.6336 15.20985007181044

JSON: /api/v1/satellites/56995 · /tle

For live sub-satellite position, see the globe view (requires WebGL).

§ Visibility from observer

Set your observer location to see the next 7 days of passes ≥ 10°. The values pass through the URL so the page stays shareable.

No JS? Fill the form by hand. The geolocation button needs JavaScript.